Volver al catálogo

STARLINK-35686

ActivoComunicacionesVLEO
NORAD 66407·PAYLOAD·🇺🇸 United States

Lanzado Nov 8, 2025 desde Cape Canaveral Space Force Station

Loading…

Próximos Pases (próximas 24 horas)

TLE

ActualizadoSource: CelesTrak SupGP

Época: Sep 15, 2026, 04:14 UTC

1 66407C 25257AD  26258.17687500  .00005867  00000+0  17339-3 0  2580
2 66407  53.1596  52.5122 0001097  88.6102   5.1053 15.34380137    13

Sigue STARLINK-35686 en tiempo real con AllMySat

Download on the App Store